Time,TemperatureF,DewpointF,PressureIn,WindDirection,WindDirectionDegrees,WindSpeedMPH,WindSpeedGustMPH,Humidity,HourlyPrecipIn,Conditions,Clouds,dailyrainin,SoftwareType,DateUTC
2013-12-01 00:09:00,62.5,32.0,30.25,NNE,27,0.0,-999.0,32,-99.99,,,0.05,weatherlink.com 1.10,2013-12-01 08:09:00,
2013-12-01 00:24:00,62.6,32.0,30.25,NNE,27,0.0,-999.0,32,-99.99,,,0.00,weatherlink.com 1.10,2013-12-01 08:24:00,
2013-12-01 00:39:00,61.9,32.0,30.25,NNE,26,0.0,-999.0,32,-99.99,,,0.00,weatherlink.com 1.10,2013-12-01 08:39:00,
2013-12-01 00:54:00,61.3,31.0,30.25,NNE,26,0.0,-999.0,32,-99.99,,,0.00,weatherlink.com 1.10,2013-12-01 08:54:00,
2013-12-01 01:09:00,61.0,32.0,30.25,NNE,27,0.0,-999.0,33,-99.99,,,0.00,weatherlink.com 1.10,2013-12-01 09:09:00,
2013-12-01 01:24:00,60.9,31.0,30.25,NNE,27,0.0,-999.0,32,-99.99,,,0.00,weatherlink.com 1.10,2013-12-01 09:24:00,
2013-12-01 01:39:00,61.6,31.0,30.26,NNE,27,0.0,-999.0,32,-99.99,,,0.00,weatherlink.com 1.10,2013-12-01 09:39:00,
2013-12-01 01:54:00,61.5,31.0,30.26,NNE,26,0.0,-999.0,32,-99.99,,,0.00,weatherlink.com 1.10,2013-12-01 09:54:00,
2013-12-01 02:09:00,60.9,31.0,30.26,NNE,26,0.0,-999.0,32,-99.99,,,0.00,weatherlink.com 1.10,2013-12-01 10:09:00,
2013-12-01 02:24:00,60.6,31.0,30.26,NNE,27,0.0,-999.0,33,-99.99,,,0.00,weatherlink.com 1.10,2013-12-01 10:24:00,
2013-12-01 02:39:00,60.8,31.0,30.26,NNE,27,0.0,-999.0,33,-99.99,,,0.00,weatherlink.com 1.10,2013-12-01 10:39:00,
2013-12-01 02:54:00,59.5,31.0,30.26,NNE,27,0.0,-999.0,34,-99.99,,,0.00,weatherlink.com 1.10,2013-12-01 10:54:00,
2013-12-01 03:09:00,59.6,31.0,30.25,NNE,22,1.0,-999.0,34,-99.99,,,0.00,weatherlink.com 1.10,2013-12-01 11:09:00,
2013-12-01 03:24:00,60.0,31.0,30.25,NNE,19,0.0,-999.0,33,-99.99,,,0.00,weatherlink.com 1.10,2013-12-01 11:24:00,
2013-12-01 03:39:00,59.4,31.0,30.25,NNE,32,0.0,-999.0,34,-99.99,,,0.00,weatherlink.com 1.10,2013-12-01 11:39:00,
2013-12-01 03:54:00,59.0,30.0,30.25,NNE,32,0.0,-999.0,34,-99.99,,,0.00,weatherlink.com 1.10,2013-12-01 11:54:00,
2013-12-01 04:09:00,59.0,30.0,30.25,NNE,32,0.0,-999.0,33,-99.99,,,0.00,weatherlink.com 1.10,2013-12-01 12:09:00,
2013-12-01 04:24:00,59.0,30.0,30.25,NNE,32,0.0,-999.0,34,-99.99,,,0.00,weatherlink.com 1.10,2013-12-01 12:24:00,
2013-12-01 04:39:00,58.6,30.0,30.25,NNE,32,0.0,-999.0,34,-99.99,,,0.00,weatherlink.com 1.10,2013-12-01 12:39:00,
2013-12-01 04:54:00,58.0,30.0,30.26,NNE,32,0.0,-999.0,35,-99.99,,,0.00,weatherlink.com 1.10,2013-12-01 12:54:00,
2013-12-01 05:09:00,58.2,30.0,30.26,NNE,32,0.0,-999.0,34,-99.99,,,0.00,weatherlink.com 1.10,2013-12-01 13:09:00,
2013-12-01 05:24:00,58.6,29.0,30.26,NNE,32,0.0,-999.0,33,-99.99,,,0.00,weatherlink.com 1.10,2013-12-01 13:24:00,
2013-12-01 05:39:00,58.3,30.0,30.27,NNE,32,0.0,-999.0,34,-99.99,,,0.00,weatherlink.com 1.10,2013-12-01 13:39:00,
2013-12-01 05:54:00,57.7,30.0,30.28,NNE,32,0.0,-999.0,35,-99.99,,,0.00,weatherlink.com 1.10,2013-12-01 13:54:00,
2013-12-01 06:09:00,57.0,30.0,30.29,NNE,32,0.0,-999.0,36,-99.99,,,0.00,weatherlink.com 1.10,2013-12-01 14:09:00,
2013-12-01 06:24:00,56.6,30.0,30.29,NNE,32,0.0,-999.0,36,-99.99,,,0.00,weatherlink.com 1.10,2013-12-01 14:24:00,
2013-12-01 06:39:00,56.7,30.0,30.29,NNE,32,0.0,-999.0,36,-99.99,,,0.00,weatherlink.com 1.10,2013-12-01 14:39:00,
2013-12-01 06:54:00,56.9,31.0,30.29,NNE,32,0.0,-999.0,37,-99.99,,,0.00,weatherlink.com 1.10,2013-12-01 14:54:00,
2013-12-01 07:09:00,56.9,31.0,30.30,NNE,32,0.0,-999.0,37,-99.99,,,0.00,weatherlink.com 1.10,2013-12-01 15:09:00,
2013-12-01 07:24:00,57.3,31.0,30.30,NNE,32,0.0,-999.0,37,-99.99,,,0.00,weatherlink.com 1.10,2013-12-01 15:24:00,
2013-12-01 07:39:00,57.7,31.0,30.30,NNE,32,0.0,-999.0,36,-99.99,,,0.00,weatherlink.com 1.10,2013-12-01 15:39:00,
2013-12-01 07:54:00,59.7,33.0,30.31,NNE,32,0.0,-999.0,37,-99.99,,,0.00,weatherlink.com 1.10,2013-12-01 15:54:00,
2013-12-01 08:09:00,61.2,32.0,30.31,NNE,32,0.0,-999.0,34,-99.99,,,0.00,weatherlink.com 1.10,2013-12-01 16:09:00,
2013-12-01 08:24:00,62.1,32.0,30.31,NNE,32,0.0,-999.0,33,-99.99,,,0.00,weatherlink.com 1.10,2013-12-01 16:24:00,
2013-12-01 08:39:00,62.3,33.0,30.32,NNE,32,0.0,-999.0,33,-99.99,,,0.00,weatherlink.com 1.10,2013-12-01 16:39:00,
2013-12-01 08:54:00,64.0,35.0,30.32,NNE,32,0.0,-999.0,34,-99.99,,,0.00,weatherlink.com 1.10,2013-12-01 16:54:00,
2013-12-01 09:09:00,63.5,34.0,30.32,NNE,32,0.0,-999.0,33,-99.99,,,0.00,weatherlink.com 1.10,2013-12-01 17:09:00,
2013-12-01 09:24:00,63.5,33.0,30.32,NNE,32,0.0,-999.0,32,-99.99,,,0.00,weatherlink.com 1.10,2013-12-01 17:24:00,
2013-12-01 09:39:00,64.4,36.0,30.32,NNE,32,0.0,-999.0,35,-99.99,,,0.00,weatherlink.com 1.10,2013-12-01 17:39:00,
2013-12-01 09:54:00,64.8,36.0,30.33,NNE,32,0.0,-999.0,35,-99.99,,,0.00,weatherlink.com 1.10,2013-12-01 17:54:00,
2013-12-01 10:09:00,65.4,36.0,30.32,NNE,32,0.0,-999.0,34,-99.99,,,0.00,weatherlink.com 1.10,2013-12-01 18:09:00,
2013-12-01 10:24:00,66.7,37.0,30.32,NNE,32,0.0,-999.0,34,-99.99,,,0.00,weatherlink.com 1.10,2013-12-01 18:24:00,
2013-12-01 10:39:00,65.0,37.0,30.31,NNE,32,0.0,-999.0,36,-99.99,,,0.00,weatherlink.com 1.10,2013-12-01 18:39:00,
2013-12-01 10:54:00,68.2,38.0,30.31,NNE,32,0.0,-999.0,33,-99.99,,,0.00,weatherlink.com 1.10,2013-12-01 18:54:00,
2013-12-01 11:09:00,67.8,39.0,30.30,NNE,21,0.0,-999.0,35,-99.99,,,0.00,weatherlink.com 1.10,2013-12-01 19:09:00,
2013-12-01 11:24:00,67.6,37.0,30.30,NNE,21,0.0,-999.0,32,-99.99,,,0.00,weatherlink.com 1.10,2013-12-01 19:24:00,
2013-12-01 11:39:00,64.7,37.0,30.29,NNE,21,0.0,-999.0,36,-99.99,,,0.00,weatherlink.com 1.10,2013-12-01 19:39:00,
2013-12-01 11:54:00,65.5,38.0,30.28,NNE,19,0.0,-999.0,36,-99.99,,,0.00,weatherlink.com 1.10,2013-12-01 19:54:00,
2013-12-01 12:09:00,65.6,38.0,30.27,NNE,19,0.0,-999.0,37,-99.99,,,0.00,weatherlink.com 1.10,2013-12-01 20:09:00,
2013-12-01 12:24:00,65.4,38.0,30.27,NNE,18,0.0,-999.0,36,-99.99,,,0.00,weatherlink.com 1.10,2013-12-01 20:24:00,
2013-12-01 12:39:00,66.2,38.0,30.26,NNE,18,0.0,-999.0,35,-99.99,,,0.00,weatherlink.com 1.10,2013-12-01 20:39:00,
2013-12-01 12:54:00,66.6,38.0,30.26,NW,304,0.0,-999.0,35,-99.99,,,0.00,weatherlink.com 1.10,2013-12-01 20:54:00,
2013-12-01 13:09:00,67.5,35.0,30.25,NW,304,0.0,-999.0,30,-99.99,,,0.00,weatherlink.com 1.10,2013-12-01 21:09:00,
2013-12-01 13:24:00,67.7,38.0,30.25,WNW,303,0.0,-999.0,34,-99.99,,,0.00,weatherlink.com 1.10,2013-12-01 21:24:00,
2013-12-01 13:39:00,68.5,37.0,30.24,South,184,0.0,-999.0,32,-99.99,,,0.00,weatherlink.com 1.10,2013-12-01 21:39:00,
2013-12-01 13:54:00,68.9,37.0,30.23,SSW,192,0.0,-999.0,31,-99.99,,,0.00,weatherlink.com 1.10,2013-12-01 21:54:00,
2013-12-01 14:09:00,69.8,37.0,30.23,East,79,1.0,-999.0,30,-99.99,,,0.00,weatherlink.com 1.10,2013-12-01 22:09:00,
2013-12-01 14:24:00,69.0,39.0,30.23,East,80,0.0,-999.0,33,-99.99,,,0.00,weatherlink.com 1.10,2013-12-01 22:24:00,
2013-12-01 14:39:00,69.5,37.0,30.22,East,80,0.0,-999.0,31,-99.99,,,0.00,weatherlink.com 1.10,2013-12-01 22:39:00,
2013-12-01 14:54:00,69.4,37.0,30.22,East,80,0.0,-999.0,30,-99.99,,,0.00,weatherlink.com 1.10,2013-12-01 22:54:00,
2013-12-01 15:09:00,68.7,38.0,30.21,East,80,0.0,-999.0,32,-99.99,,,0.00,weatherlink.com 1.10,2013-12-01 23:09:00,
2013-12-01 15:24:00,70.7,37.0,30.21,East,80,0.0,-999.0,29,-99.99,,,0.00,weatherlink.com 1.10,2013-12-01 23:24:00,
2013-12-01 15:39:00,69.7,40.0,30.21,East,80,0.0,-999.0,34,-99.99,,,0.00,weatherlink.com 1.10,2013-12-01 23:39:00,
2013-12-01 15:55:00,69.1,39.0,30.22,East,80,0.0,-999.0,34,-99.99,,,0.00,weatherlink.com 1.10,2013-12-01 23:55:00,
2013-12-01 16:09:00,68.4,40.0,30.21,East,80,0.0,-999.0,35,-99.99,,,0.00,weatherlink.com 1.10,2013-12-02 00:09:00,
2013-12-01 16:24:00,67.8,38.0,30.21,NE,56,0.0,-999.0,33,-99.99,,,0.00,weatherlink.com 1.10,2013-12-02 00:24:00,
2013-12-01 16:39:00,66.8,37.0,30.21,NE,56,0.0,-999.0,33,-99.99,,,0.00,weatherlink.com 1.10,2013-12-02 00:39:00,
2013-12-01 16:54:00,66.7,36.0,30.21,NE,56,0.0,-999.0,32,-99.99,,,0.00,weatherlink.com 1.10,2013-12-02 00:54:00,
2013-12-01 17:09:00,66.6,36.0,30.22,NE,56,0.0,-999.0,32,-99.99,,,0.00,weatherlink.com 1.10,2013-12-02 01:09:00,
2013-12-01 17:24:00,66.2,35.0,30.22,NNE,32,0.0,-999.0,32,-99.99,,,0.00,weatherlink.com 1.10,2013-12-02 01:24:00,
2013-12-01 17:39:00,65.8,36.0,30.22,NNE,16,1.0,-999.0,33,-99.99,,,0.00,weatherlink.com 1.10,2013-12-02 01:39:00,
2013-12-01 17:54:00,65.6,36.0,30.23,ENE,57,3.0,-999.0,33,-99.99,,,0.00,weatherlink.com 1.10,2013-12-02 01:54:00,
2013-12-01 18:09:00,65.2,36.0,30.23,NE,49,3.0,-999.0,34,-99.99,,,0.00,weatherlink.com 1.10,2013-12-02 02:09:00,
2013-12-01 18:24:00,63.9,36.0,30.23,ENE,71,4.0,-999.0,35,-99.99,,,0.00,weatherlink.com 1.10,2013-12-02 02:24:00,
2013-12-01 18:39:00,64.1,34.0,30.22,ENE,71,1.0,-999.0,33,-99.99,,,0.00,weatherlink.com 1.10,2013-12-02 02:39:00,
2013-12-01 18:54:00,64.1,34.0,30.22,NE,42,0.0,-999.0,33,-99.99,,,0.00,weatherlink.com 1.10,2013-12-02 02:54:00,
2013-12-01 19:09:00,64.3,34.0,30.22,East,84,0.0,-999.0,32,-99.99,,,0.00,weatherlink.com 1.10,2013-12-02 03:09:00,
2013-12-01 19:24:00,64.1,33.0,30.22,NE,43,0.0,-999.0,31,-99.99,,,0.00,weatherlink.com 1.10,2013-12-02 03:24:00,
2013-12-01 19:39:00,64.0,33.0,30.23,NE,43,0.0,-999.0,31,-99.99,,,0.00,weatherlink.com 1.10,2013-12-02 03:39:00,
2013-12-01 19:54:00,64.6,32.0,30.23,NE,42,0.0,-999.0,30,-99.99,,,0.00,weatherlink.com 1.10,2013-12-02 03:54:00,
2013-12-01 20:09:00,64.7,32.0,30.23,NE,43,0.0,-999.0,29,-99.99,,,0.00,weatherlink.com 1.10,2013-12-02 04:09:00,
2013-12-01 20:24:00,64.8,32.0,30.23,NE,43,0.0,-999.0,29,-99.99,,,0.00,weatherlink.com 1.10,2013-12-02 04:24:00,
2013-12-01 20:39:00,64.9,31.0,30.23,NE,43,0.0,-999.0,28,-99.99,,,0.00,weatherlink.com 1.10,2013-12-02 04:39:00,
2013-12-01 20:54:00,65.3,32.0,30.24,NE,43,0.0,-999.0,29,-99.99,,,0.00,weatherlink.com 1.10,2013-12-02 04:54:00,
2013-12-01 21:09:00,65.1,32.0,30.24,NE,43,0.0,-999.0,29,-99.99,,,0.00,weatherlink.com 1.10,2013-12-02 05:09:00,
2013-12-01 21:25:00,64.7,34.0,30.25,NE,43,0.0,-999.0,32,-99.99,,,0.00,weatherlink.com 1.10,2013-12-02 05:25:00,
2013-12-01 21:40:00,64.1,33.0,30.25,NE,43,0.0,-999.0,32,-99.99,,,0.00,weatherlink.com 1.10,2013-12-02 05:40:00,
2013-12-01 21:55:00,64.0,33.0,30.25,NE,43,0.0,-999.0,32,-99.99,,,0.00,weatherlink.com 1.10,2013-12-02 05:55:00,
2013-12-01 22:10:00,64.3,33.0,30.25,NE,42,0.0,-999.0,31,-99.99,,,0.00,weatherlink.com 1.10,2013-12-02 06:10:00,
2013-12-01 22:25:00,64.7,33.0,30.25,NE,43,0.0,-999.0,31,-99.99,,,0.00,weatherlink.com 1.10,2013-12-02 06:25:00,
2013-12-01 22:40:00,64.4,33.0,30.25,NE,43,0.0,-999.0,31,-99.99,,,0.00,weatherlink.com 1.10,2013-12-02 06:40:00,
2013-12-01 22:55:00,63.5,32.0,30.24,NE,43,0.0,-999.0,31,-99.99,,,0.00,weatherlink.com 1.10,2013-12-02 06:55:00,
2013-12-01 23:10:00,63.4,32.0,30.24,NE,43,0.0,-999.0,31,-99.99,,,0.00,weatherlink.com 1.10,2013-12-02 07:10:00,
2013-12-01 23:25:00,63.6,32.0,30.24,NE,42,0.0,-999.0,31,-99.99,,,0.00,weatherlink.com 1.10,2013-12-02 07:25:00,
2013-12-01 23:40:00,63.5,33.0,30.23,NE,43,0.0,-999.0,32,-99.99,,,0.00,weatherlink.com 1.10,2013-12-02 07:40:00,
2013-12-01 23:55:00,63.4,33.0,30.23,NE,42,0.0,-999.0,32,-99.99,,,0.00,weatherlink.com 1.10,2013-12-02 07:55:00,